OBJECT H

Satellite information

Favourite Embed

Satellite Type and Status

UNKNOWNDECAYED

Key statistics

Satellite OBJECT H at a glance.

Uptime

439

Days in orbit

Revolutions

≈ 16.4

Per day

Orbit

SSO

Sun Synchronous Orbit

Inclination

97.4

Latest

Satellite identification and parameters

Extended collection of information and parameters for OBJECT H.

Object identification

Identified? True

Debris? False

Object name: OBJECT H

International designator: 2024-039H

Object number (NORAD): 59058

Object ID (CCSDS): 59058

Country: TO BE DETERMINED/UNKNOWN (TBD)

Current information (Y/N): Y

RCS size: SMALL

Orbital parameters

Decay date: May 13, 2025

Period: 87.847 minutes

Inclination: 97.3962 deg

SMA: 6546.05 km

Apoapsis: 173.965 km

Periapsis: 161.866 km

RAAN: 104.6898 deg

Eccentricy: 0.0009242

Argument of periapsis: 210.9051 deg

Mean anomaly: 149.1705 deg

Mean motion: 16.39206788 rev/day

Mean motion (dot): 0.09389883 rev/day2

B* drag term: 0.00082448 1/REarth

Two-line elements (TLE)

Creation date: May 9, 2025, 2:46 a.m.

Reference frame: TEME

Reference center: EARTH

Epoch: May 7, 2025, 11:47 p.m. UTC

TLE line 0: 0 OBJECT H

TLE line 1: 1 59058U 24039H 25127.99152363 .09389883 26089-5 82448-3 0 9997

TLE line 2: 2 59058 97.3962 104.6898 0009242 210.9051 149.1705 16.39206788 66892

Live tracking on map

Satellite OBJECT H has decayed and is no longer in orbit. No tracking available.

In-orbit conjunctions

Satellite OBJECT H has decayed and is no longer in orbit. No conjunctions available.

Associated space launch

Meteor-M satellites are a new generation of Russian meteorological satellites. Hitchhiking Payloads: SITRO-AIS 13-28, Zorkiy-2M-2, Pars 1 (Iran).

OBJECT H was lifted into orbit during the mission ‘Soyuz 2.1b/Fregat-M | Meteor-M No.2-4 & others’, on board a Soyuz 2.1b/Fregat-M space rocket.

The launch took place on Feb. 29, 2024, 5:43 a.m. from Cosmodrome Site 1S.

For more information about the launch, click the button.

Launch to space Soyuz 2.1b/Fregat-M | Meteor-M No.2-4 & others
Soyuz 2.1b/Fregat-M | Meteor-M No.2-4 & others

Agency: Russian Federal Space Agency (ROSCOSMOS)

Status: Launch Successful

Launch date: Feb. 29, 2024, 5:43 a.m. UTC

Rocket: Soyuz 2.1b/Fregat-M

Launch pad: Cosmodrome Site 1S

Location: Vostochny Cosmodrome, Siberia, Russian Federation

...

Latest news about this satellite

There are no fresh news available about this satellite. Check back as we update our databases every day.


Newsletter sign-up

Weekly statistics, charts and insights to help you stay on top of the space industry.